Theta_e
359 357 355 354 352 349 349 351 351 348 346 345 345 343 339 331 334 341 341 341 340 339 339 339 337 335 337 338 339 339 339 339 340 339 338 337 337 338 338 335 333 329 337
359 356 352 351 348 351 351 350 346 347 335 341 344 343 340 334 338 339 339 340 338 338 336 336 334 334 333 331 332 335 336 336 335 337 337 336 337 334 333 335 334 336 339
358 356 344 346 350 353 351 344 347 344 345 344 344 343 340 339 339 338 337 336 336 334 332 330 328 329 326 328 326 326 327 329 329 332 334 334 334 333 333 333 334 336 337
355 351 351 351 352 350 350 348 346 344 345 343 342 340 339 338 337 336 336 335 333 331 328 319 313 310 310 323 322 320 318 317 320 320 319 319 320 324 328 332 334 334 333
350 351 352 352 350 349 347 345 343 341 340 340 339 338 337 335 332 331 330 323 324 323 322 319 316 316 312 310 309 309 309 309 310 314 317 318 320 321 320 319 320 320 320
349 350 348 349 348 346 344 338 338 339 339 338 337 335 335 330 326 312 316 321 321 322 321 321 320 319 318 318 310 310 313 315 314 312 313 315 316 317 318 319 319 320 320
350 351 349 348 347 345 344 343 342 339 336 335 334 332 330 324 311 310 313 322 321 321 320 319 319 320 320 318 314 308 310 315 315 315 316 316 317 316 315 313 311 313 316
351 350 346 346 346 344 343 344 336 334 333 330 326 322 327 326 314 311 311 317 322 322 321 319 318 318 317 316 314 313 310 306 311 313 313 313 313 314 315 314 311 312 311
350 347 345 345 344 344 344 338 334 331 322 315 322 324 325 326 319 311 311 313 320 321 321 321 320 320 320 318 315 312 312 307 308 313 314 313 313 312 310 313 314 314 315
348 347 345 344 343 342 341 335 331 317 313 325 325 325 324 320 322 317 312 312 314 317 318 316 315 320 319 315 312 310 309 311 311 310 309 311 313 314 313 314 314 314 315
348 346 344 343 342 341 336 331 316 313 327 322 322 322 323 322 319 319 314 310 310 310 308 311 313 314 313 311 310 310 312 311 310 310 311 312 312 312 312 312 311 313 314
348 344 344 343 338 336 334 318 315 318 315 325 324 323 324 324 322 320 316 314 311 310 311 312 312 312 312 311 310 311 311 311 310 311 311 311 311 311 311 311 310 310 310
346 343 343 340 334 331 319 314 312 322 322 325 325 322 319 321 321 318 316 312 310 311 312 312 312 312 310 309 311 311 311 312 313 312 312 312 312 311 310 310 310 310 310
344 342 339 336 331 325 319 322 324 326 324 320 319 318 317 315 315 316 313 311 308 309 311 310 308 309 312 312 313 312 311 313 312 311 312 312 312 312 311 311 311 310 310
342 339 338 338 334 320 326 325 323 321 320 318 317 315 313 313 314 311 308 306 307 308 309 309 311 313 312 313 313 313 313 313 313 313 312 312 312 312 312 312 311 311 311
336 335 338 334 323 324 322 322 320 318 314 314 313 309 306 307 311 310 310 311 312 312 312 312 314 314 314 313 314 314 314 313 313 313 313 313 313 312 312 312 312 312 311
335 336 336 326 322 321 321 319 318 319 318 316 315 315 315 314 313 312 312 313 313 313 313 315 315 315 314 315 315 315 314 313 312 312 311 311 311 310 310 310 310 312 312
334 336 331 322 321 321 320 320 320 320 318 316 316 316 316 315 313 313 314 314 314 314 314 315 315 314 315 314 313 312 311 310 309 308 309 310 309 308 309 309 309 309 309
334 327 319 320 322 321 319 320 319 317 316 316 316 317 316 315 314 315 315 315 315 315 315 314 313 313 314 313 312 311 310 308 309 310 308 307 307 307 307 307 307 307 308
326 319 322 322 321 320 319 318 317 316 316 316 316 316 316 315 315 316 316 318 316 315 314 313 312 312 312 311 311 310 309 309 310 307 305 304 303 302 303 303 304 306 308
319 321 321 321 319 317 318 316 315 315 316 316 316 315 315 316 316 317 317 317 316 315 313 312 311 311 311 311 310 308 310 311 307 305 302 300 297 296 297 297 301 303 304
320 318 314 317 316 316 315 314 315 316 316 316 316 317 317 317 317 317 317 316 315 314 313 311 311 311 311 311 309 311 312 308 305 303 300 300 299 296 294 297 302 304 305
316 316 316 315 315 314 313 315 315 315 316 317 318 317 317 317 318 317 317 316 315 313 311 311 312 312 312 311 311 312 311 307 306 302 300 301 301 301 301 302 304 305 306
318 316 315 315 315 314 315 315 316 317 317 317 317 318 318 319 318 318 317 316 314 312 311 312 312 312 312 312 313 313 309 307 306 302 301 302 303 303 304 304 304 304 304
319 317 315 315 312 315 314 317 317 318 318 318 318 319 319 319 318 318 317 315 314 310 312 312 312 312 312 313 313 312 308 307 306 303 302 302 303 303 303 304 304 303 303
320 317 314 315 315 316 317 318 318 318 319 319 320 320 319 319 318 317 316 315 310 312 312 311 311 310 312 313 313 311 308 308 308 306 303 303 303 303 303 303 303 303 303
Wind_Speed
19 11 10 10 8 4 4 1 5 3 5 5 4 3 2 2 4 5 6 7 7 6 6 7 8 6 4 3 4 4 4 5 2 1 5 7 8 8 7 7 4 2 6
17 17 14 12 8 8 5 5 5 5 1 4 4 3 5 5 3 0 2 2 1 1 4 7 9 7 6 5 5 4 5 4 3 2 7 10 11 12 12 12 13 17 17
17 15 11 11 11 11 11 7 8 6 4 1 1 1 4 6 6 6 4 5 6 5 4 4 4 4 6 6 9 7 7 6 6 5 9 13 15 17 19 19 21 23 22
18 14 14 14 14 11 11 8 6 3 5 5 5 1 3 6 5 4 5 4 2 4 7 7 6 6 5 1 2 3 6 5 9 10 8 7 8 10 16 23 26 26 27
20 18 19 19 16 16 15 13 10 7 4 2 4 5 5 6 8 7 5 6 4 4 3 7 8 10 7 6 8 9 10 9 7 7 4 8 10 6 10 12 16 16 19
23 20 18 18 18 14 9 5 3 1 2 4 4 4 7 9 9 6 4 3 6 2 3 6 10 7 8 10 11 13 12 14 13 13 11 11 13 13 14 14 17 17 18
22 20 20 16 12 10 8 6 4 2 5 4 4 3 8 8 5 2 1 3 4 5 5 4 5 3 3 13 15 14 8 9 12 14 16 13 12 17 21 23 22 22 24
25 21 16 14 12 9 7 7 3 3 5 7 7 4 5 9 8 5 3 2 1 9 8 7 11 13 13 15 14 17 19 18 11 13 16 19 21 20 21 24 27 23 24
22 18 15 12 10 9 8 6 5 6 8 6 4 3 1 8 9 7 6 4 7 10 16 15 18 12 14 15 15 20 26 26 16 11 16 21 25 28 25 16 21 20 20
18 17 15 13 10 9 9 6 5 7 6 2 4 4 6 7 8 10 11 10 7 10 10 13 17 15 15 14 18 23 25 18 15 22 19 12 13 21 20 20 19 25 23
20 19 16 14 12 11 9 6 6 2 5 5 6 5 7 7 9 12 13 13 13 14 16 12 18 14 12 20 24 22 18 20 22 23 15 14 15 15 19 18 19 18 19
21 16 16 14 10 13 8 5 3 3 2 4 6 9 9 11 11 10 12 16 14 16 16 10 17 20 24 26 25 21 20 24 23 18 17 17 18 19 18 20 19 20 24
21 16 13 10 9 8 4 2 1 5 6 4 9 9 10 7 7 10 9 11 14 18 14 17 17 22 27 28 21 22 23 20 19 21 23 23 20 26 24 23 24 24 27
19 14 11 9 9 6 2 6 5 9 6 3 3 4 5 9 9 3 8 14 20 15 17 21 25 24 17 20 22 22 17 19 24 23 27 26 27 28 28 26 25 24 26
19 12 12 12 11 7 9 10 11 9 7 6 6 7 8 8 13 17 20 21 19 19 22 21 22 25 25 23 25 25 25 26 26 26 26 28 30 29 27 29 25 28 29
19 15 17 13 11 8 9 11 13 10 4 6 8 8 8 11 11 15 18 17 18 20 22 23 27 30 30 28 28 27 27 24 27 28 26 27 28 29 28 25 25 29 30
17 16 17 14 8 9 13 7 6 7 5 6 7 10 11 11 14 19 19 18 19 23 24 26 31 33 31 29 24 15 17 21 25 35 36 39 41 47 44 46 43 33 31
19 18 16 17 12 14 10 9 7 6 7 8 8 12 12 12 17 25 18 20 22 22 25 28 28 24 22 15 23 27 33 41 49 50 47 43 38 35 37 38 37 35 38
20 18 11 14 11 11 7 8 6 5 5 6 9 10 8 14 23 23 22 22 19 20 21 21 24 24 22 26 31 38 46 53 49 39 32 32 32 33 34 33 33 32 31
18 15 9 11 11 9 9 5 5 5 5 5 7 7 8 15 21 20 20 22 15 20 20 23 23 23 29 33 38 42 50 49 36 31 33 32 33 33 32 31 29 31 30
18 16 13 9 3 7 7 5 2 3 4 5 7 10 15 15 21 20 23 17 22 19 24 23 23 26 30 35 43 47 46 35 31 32 33 33 32 30 26 30 31 21 20
18 19 14 11 9 9 5 3 1 1 3 6 8 12 14 16 18 18 19 21 19 26 25 24 28 32 34 35 43 48 35 31 30 27 24 26 28 19 11 6 2 10 12
12 11 11 10 9 8 5 4 1 2 4 6 10 12 14 16 18 19 19 18 25 23 23 24 27 30 34 38 47 36 30 28 26 21 17 19 20 17 11 8 5 4 3
12 10 10 10 5 6 3 3 2 3 4 8 11 13 16 17 19 19 19 24 21 27 26 24 25 30 35 45 35 29 26 25 20 18 13 12 12 13 11 9 9 6 3
7 9 9 8 5 4 2 4 1 3 6 9 12 14 15 19 19 18 21 20 27 24 23 25 28 31 36 42 33 25 25 20 15 13 11 10 11 12 9 7 6 6 8
12 9 10 8 6 6 3 1 3 5 8 10 14 14 19 18 17 19 20 26 27 21 24 25 28 33 35 39 29 23 22 19 14 12 12 10 10 10 9 8 7 7 5
Wind_Direction
198 185 174 196 187 164 128 156 180 134 132 134 168 187 248 19 63 65 59 42 21 11 23 358 359 6 354 321 294 285 307 328 52 228 226 219 202 190 184 182 187 142 252
190 179 187 181 163 141 169 175 125 182 155 132 95 321 345 350 28 325 293 53 25 9 343 332 346 8 5 355 340 336 313 295 291 219 208 205 217 221 236 219 213 215 227
181 187 176 162 138 172 180 180 184 166 140 48 10 17 344 352 350 354 357 341 338 340 9 340 325 350 355 12 4 5 358 354 356 316 267 256 259 262 254 241 239 237 245
174 160 160 151 177 165 167 168 188 136 189 212 250 128 8 350 322 335 8 354 354 322 308 328 358 2 5 94 339 331 340 14 351 348 345 339 328 291 273 264 252 252 255
166 169 159 168 169 185 186 187 194 199 222 289 349 348 55 283 271 293 294 304 290 295 321 352 359 1 20 354 339 343 343 333 305 274 286 320 328 340 328 319 304 296 281
173 178 177 171 186 196 188 193 195 260 349 344 357 312 256 259 285 294 230 345 6 50 360 344 332 324 353 335 353 350 353 343 341 329 317 284 275 289 270 261 264 273 281
170 178 182 186 174 184 181 182 168 223 294 295 271 254 295 314 328 349 156 88 302 308 334 335 53 328 263 313 326 339 336 317 321 322 316 317 305 290 289 286 283 280 274
179 189 181 176 187 175 178 189 229 272 294 308 307 305 286 320 340 347 333 243 282 284 297 290 313 301 299 315 319 328 333 328 304 290 291 292 285 283 282 289 294 298 293
186 187 182 178 184 184 176 213 249 287 305 310 312 327 311 303 332 341 342 330 328 305 314 294 305 277 277 289 305 320 324 325 319 297 282 273 276 283 287 285 290 294 291
184 187 185 178 174 173 203 232 275 297 314 114 314 312 303 283 315 331 329 330 321 314 311 323 321 267 269 291 316 326 324 327 313 311 309 311 319 312 299 284 286 285 284
185 189 178 178 176 199 226 250 269 219 230 262 265 269 265 271 298 339 338 328 318 312 308 303 313 293 302 321 323 323 317 322 316 317 321 309 308 300 298 284 294 284 276
193 193 192 205 204 227 225 240 241 248 262 354 341 354 325 278 301 328 338 339 341 336 336 325 301 304 303 306 315 312 312 313 311 310 307 304 299 306 300 300 291 280 278
190 196 190 189 208 251 253 237 216 66 35 309 295 333 338 310 321 323 337 332 333 329 317 294 295 300 300 308 309 309 298 298 312 303 293 286 286 290 292 289 293 294 287
187 173 186 191 227 253 246 43 68 269 280 258 287 310 316 333 304 332 310 312 316 306 303 303 309 308 315 309 300 306 300 286 291 293 290 288 284 292 294 298 283 288 293
181 187 212 219 222 211 199 222 229 232 250 260 281 297 288 286 296 303 307 315 323 327 317 314 311 315 316 304 294 309 303 290 277 299 296 290 288 280 280 281 288 278 276
194 204 206 202 203 199 209 242 230 251 314 342 356 349 313 304 331 343 343 341 344 335 317 309 311 311 310 305 290 308 301 303 304 299 298 294 291 287 283 277 281 275 269
213 205 192 198 179 186 200 231 233 249 273 313 333 353 348 348 344 342 342 338 335 319 310 307 308 313 304 302 307 321 315 312 304 300 294 293 289 291 286 286 280 277 262
214 205 194 170 196 204 206 222 242 278 297 324 326 335 340 338 335 335 326 308 310 318 315 302 316 332 334 316 311 313 314 315 311 309 304 300 296 288 283 281 279 275 271
194 187 176 162 195 202 198 209 230 242 274 305 314 316 323 332 334 327 314 298 311 322 326 321 325 324 317 315 314 314 315 315 316 315 315 310 302 294 288 287 281 277 270
179 168 156 187 198 200 214 212 217 249 286 298 308 309 310 313 320 311 329 317 334 324 325 329 326 316 317 313 314 314 315 319 322 321 317 310 301 293 289 283 278 273 254
160 168 162 181 195 172 195 219 248 290 290 304 307 304 304 315 324 312 314 334 334 335 334 327 320 317 314 318 322 321 322 324 325 323 320 322 314 298 289 274 259 281 272
169 177 171 156 189 185 185 215 243 289 299 308 312 313 330 330 328 325 332 337 335 332 329 326 319 320 323 320 326 329 329 327 327 329 342 3 4 356 312 318 348 273 260
148 145 153 162 179 179 200 146 253 338 330 307 316 328 331 329 328 334 338 336 334 332 328 326 329 322 324 326 328 331 330 332 333 337 344 357 6 15 22 13 350 341 268
163 159 160 170 185 157 172 185 208 296 326 323 330 329 327 340 341 336 339 338 328 323 331 337 327 324 325 330 336 335 338 338 340 346 352 347 5 17 15 26 360 336 287
161 169 165 168 164 149 159 180 258 321 326 332 326 329 345 340 335 339 339 326 322 339 340 338 327 327 332 340 342 343 347 348 352 358 10 10 9 8 359 358 348 332 325
181 181 178 173 168 178 197 247 316 332 330 321 333 344 341 337 344 339 330 323 337 345 338 342 328 328 334 342 346 349 356 4 5 5 13 9 5 347 346 349 351 2 18